User: anonymous   Login
Location: Newark
(47.5833°N, 8.1500°E)
Time: 01:01:50
(UTC+00:00)
Language:

Tiros 1 despin weight - Orbit

View from above orbital plane
View from above orbital plane
View from above satellite
View from above satellite

Ground track
Ground track

The orbit data is extracted from the following two-line orbital elements,

1   115U 60002D   20300.44931431 +.00000121 +00000-0 +41469-4 0  9991
2   115 048.1680 004.3022 0033857 106.6777 253.7857 14.83635295211262
Epoch (UTC): 26 October 2020 10:47:00
Eccentricity: 0.0033857
inclination: 48.1680°
perigee height: 594 km
apogee height: 641 km
right ascension of ascending node: 4.3022°
argument of perigee: 106.6777°
revolutions per day: 14.83635295
mean anomaly at epoch: 253.7857°
orbit number at epoch: 21126

The dashed part of the orbit path shows where the satellite is in the earth's shadow,  

DLR